AirNav   Air Wisconsin Up To $57,000 Bonus
 
 1619 users online  

CT80 Stonington Airpark
Stonington, Connecticut, USA

GOING TO STONINGTON?


FAA INFORMATION EFFECTIVE 01 DECEMBER 2022

Location

FAA Identifier: CT80
Lat/Long: 41-20-50.3570N 071-53-09.2530W
41-20.839283N 071-53.154217W
41.3473214,-71.8859036
(estimated)
Elevation: 7 ft. / 2.1 m (surveyed)
Variation: 15W (1985)
From city: 2 miles NE of STONINGTON, CT
Time zone: UTC -5 (UTC -4 during Daylight Saving Time)
Zip code: 06378

Airport Operations

Airport use: Private use. Permission required prior to landing
Activation date: 12/1979
Control tower: no
ARTCC: BOSTON CENTER
FSS: BRIDGEPORT FLIGHT SERVICE STATION
Attendance: UNATNDD
Wind indicator: yes
Segmented circle: yes
Landing fee: yes

Airport Communications

WX ASOS at WST (4 nm E): 132.375 (401-596-9543)
WX ASOS at GON (7 nm W): 127.0 (860-449-8921)
WX AWOS-3PT at BID (18 nm SE): 134.775 (401-466-5495)

Nearby radio navigation aids

VOR radial/distance  VOR name  Freq  Var
GONr096/7.6GROTON VOR/DME110.8514W
ORWr172/13.5NORWICH VOR/DME110.0014W
SEYr323/17.7SANDY POINT VOR/DME117.8015W
PVDr236/30.5PROVIDENCE VOR/DME115.6014W
HTOr050/32.2HAMPTON VORTAC113.6013W
HFDr134/34.6HARTFORD VOR/DME114.9013W
MADr100/36.4MADISON VOR/DME110.4013W
PUTr197/36.5PUTNAM VOR/DME117.4014W

Airport Services

Runway Information

Runway 4/22

Dimensions: 1700 x 50 ft. / 518 x 15 m
Surface: turf
RUNWAY 4  RUNWAY 22
Traffic pattern: rightright

Airport Ownership and Management from official FAA records

Ownership: Privately-owned
Owner: MICHAEL M. CONNERY
349 ELM ST
STONINGTON, CT 06378
Phone 347-782-1258
Manager: RONALD P. YUHAS
91 SOUTH RD
GROTON, CT 06340
Phone 860-912-4866

Airport Operational Statistics

Aircraft based on the field: 2
Single engine airplanes: 2
    

Additional Remarks

FOR CD CTC PROVIDENCE APCH AT 401-738-8945, WHEN APCH CLSD CTC BOSTON ARTCC AT 603-879-6859.

Instrument Procedures

There are no published instrument procedures at CT80.

Some nearby airports with instrument procedures:

KWST - Westerly State Airport (4 nm E)
KGON - Groton-New London Airport (7 nm W)
0B8 - Elizabeth Field Airport (9 nm SW)
KMTP - Montauk Airport (16 nm S)
KBID - Block Island State Airport (18 nm SE)
 
Loc | Ops | Rwys | IFR | FBO | Links
Com | Nav | Svcs | Stats | Notes

Silver City Flying Club
 
Area around CT80 (Stonington Airpark)
 
Road maps at: MapQuest Bing Google
 
Aerial photo
No photo
 
Sectional chart

 
Airport distance calculator
Flying to Stonington Airpark? Find the distance to fly.

From to CT80

Sunrise and sunset
Times for 08-Dec-2022
 Local
(UTC-5)
 Zulu
(UTC)
Morning civil twilight06:3111:31
Sunrise07:0212:02
Sunset16:1721:17
Evening civil twilight16:4821:48

Current date and time
Zulu (UTC)  08-Dec-2022 17:43:42
Local (UTC-5)  08-Dec-2022 12:43:42
 
METAR
KWST 
4nm E 
081653Z AUTO 33010G20KT 290V360 10SM CLR 12/02 A3011 RMK AO2 SLP197 T01220022
KGON 
7nm W 
081656Z 33016G26KT 10SM CLR 13/03 A3013 RMK AO2 PK WND 34029/1600 SLP201 T01280028
KMTP 
17nm S 
081654Z AUTO 34011KT 12/04 A3014 RMK AO1 SLP205 T01220039
KBID 
18nm SE 
081656Z AUTO 33009G16KT 10SM CLR 11/04 A3012 RMK AO2 SLP201 T01110044
TAF
KGON 
7nm W 
081434Z 0815/0912 33014G24KT P6SM FEW035 SCT250 FM082100 33011KT P6SM FEW035 SCT250 FM090300 35008KT P6SM SCT250
NOTAMs
Click for the latest NOTAMs
NOTAMs are issued by the DoD/FAA and will open in a separate window not controlled by AirNav.

 

 
 

Would you like to see your business listed on this page?

 If your business provides an interesting product or service to pilots, flight crews, aircraft, or users of the Stonington Airpark, you should consider listing it here.  To start the listing process, click on the button below
 
Add a business
 

Other Pages about Stonington Airpark

Update a link
 
Copyright © AirNav, LLC. All rights reserved. Privacy Policy  Contact